Regional Weather Roundup
Issued by NWS

Home | Current Version | Previous Version | Graphics & Text | Print | Product List | Glossary On
Versions: 1 2 3 4 5 6 7 8 9 10 11 12 13 14 15 16 17 18 19 20 21 22 23 24 25 26 27 28 29 30 31 32 33 34 35 36 37 38 39 40 41 42 43 44 45 46 47 48 49 50
000
ASUS45 KTFX 112010
RWRMT
MONTANA REGIONAL WEATHER ROUNDUP
NATIONAL WEATHER SERVICE GREAT FALLS MT
100 PM MST THU FEB 11 2016

NOTE: "FAIR" INDICATES FEW OR NO CLOUDS BELOW 12000 FEET WITH NO
SIGNIFICANT WEATHER AND/OR OBSTRUCTIONS TO VISIBILITY.

MTZ001>007-043-112100-
WEST OF THE DIVIDE

CITY           SKY/WX    TMP DP  RH WIND       PRES   REMARKS
KALISPELL      PTSUNNY   42  32  67 CALM      30.29S
MISSOULA       PTSUNNY   43  33  68 W3        30.29F
BUTTE          CLOUDY    41  28  60 CALM      30.27F
MULLAN PASS    CLOUDY    34  31  88 S6        30.27F WCI  29
ANACONDA         N/A     43  30  61 N7        30.27S
DEER LODGE       N/A     45  32  61 CALM      30.29F
HAMILTON         N/A     46  34  61 N5        30.29S
PLAINS           N/A     44  35  70 CALM      30.29F
THOMPSON FALLS   N/A     44  38  79 W1        30.33F
$$

MTZ008-052>055-112100-
SOUTHWEST MONTANA

CITY           SKY/WX    TMP DP  RH WIND       PRES   REMARKS
BOZEMAN        SUNNY     43  27  53 S3        30.26F
DILLON         CLOUDY    40  28  62 SW16      30.29S
ENNIS          CLOUDY    46  27  46 S17       30.33F
TWIN BRIDGES     N/A     40  28  62 E5        30.24F
$$

MTZ009-010-012-014-046-048-049-054-112100-
EAST SLOPES AND CENTRAL MONTANA

CITY           SKY/WX    TMP DP  RH WIND       PRES   REMARKS
CUT BANK       MOSUNNY   48  24  39 N22       30.19R
GREAT FALLS    SUNNY     56  15  20 NW14      30.18F
MALMSTROM AFB  SUNNY     55  17  22 NW15G21   30.19S
HELENA           N/A     54  28  36 W9        30.24F
CHOTEAU          N/A     55  10  16 N13       30.20S
CONRAD           N/A     55  21  26 NW16      30.18S
$$

MTZ011-013-016-021-045-047-050-051-112100-
NORTH CENTRAL MONTANA

CITY           SKY/WX    TMP DP  RH WIND       PRES   REMARKS
HAVRE          CLOUDY    41  32  70 W9        30.19S
LEWISTOWN      SUNNY     51  25  36 NW16G26   30.16S
N BAR RANCH      N/A     52  23  32 NW22      30.17R
CHINOOK          N/A     41  34  75 W6        30.19F
$$

MTZ017>020-022>027-061-062-112100-
NORTHEAST MONTANA

CITY           SKY/WX    TMP DP  RH WIND       PRES   REMARKS
GLASGOW        CLOUDY    31  24  75 NE5       30.18R
JORDAN           N/A     41  33  73 N13       30.13R
SIDNEY         MOSUNNY   27  21  80 N9        30.16R WCI  17
WOLF POINT     CLOUDY    30  22  72 E7        30.20R WCI  23
PLENTYWOOD       N/A     21  16  79 N6        30.18R WCI  14
POPLAR           N/A     25  19  80 N7        30.20R WCI  17
SCOBEY           N/A     23  13  65 N3        30.14R
$$

MTZ028>42-056>058-112100-
SOUTHCENTRAL AND SOUTHEAST MONTANA

CITY           SKY/WX    TMP DP  RH WIND       PRES   REMARKS
BAKER          CLOUDY    34  29  82 NW15      30.07R WCI  24
BILLINGS       MOSUNNY   58  19  22 NW25G32   30.15F
LIVINGSTON     SUNNY     58  20  22 W21       30.20F
MILES CITY     CLOUDY    47  32  56 NW28G33   30.10R
EKALAKA          N/A     43  29  58 NW25      30.02
FORSYTH          N/A     55  28  35 W17G30    30.10R
LAUREL           N/A     59  20  22 NW15      30.13S
ROUNDUP          N/A     57  22  26 NW20      30.04S
$$

REGIONAL REPORTS...DAKOTAS

CITY           SKY/WX    TMP DP  RH WIND       PRES   REMARKS
WILLISTON      FLURRIES  27  19  72 NE7       30.17R WCI  19
MINOT          CLOUDY    20  11  68 N6        30.18R WCI  12
DICKINSON      LGT SNOW  24  19  81 NE12      30.06S WCI  13
BEACH          CLOUDY    28  27  93 N8        30.12R WCI  20
CROSBY         PTSUNNY   19  16  86 N3        30.21R
TIOGA          PTSUNNY   19  18  93 CALM      30.19S
WATFORD CITY   CLOUDY    25  19  80 NE3       30.15R
BISMARCK       LGT SNOW  26  18  71 NE5       30.14S
GRAND FORKS    CLOUDY    14   5  67 W6        30.22F WCI   5
FARGO          CLOUDY    15  -2  46 VRB3      30.21F
BUFFALO SD       N/A     39  32  76 NW30      29.95R WCI  27
RAPID CITY     SUNNY     57  27  31 NW38G48   29.99S
$$

REGIONAL REPORTS...WYOMING/IDAHO/WASHINGTON

CITY           SKY/WX    TMP DP  RH WIND       PRES   REMARKS
GILLETTE       CLOUDY    52  25  35 NW29G37   30.10F
SHERIDAN       PTSUNNY   57  24  28 NW29G38   30.15F
BUFFALO WY     SUNNY     51  26  37 N29G37    30.14R
CODY           CLOUDY    55  18  22 N16G25    30.17F
YELLOWSTONE LA   N/A     35  22  58 CALM      30.35F
IDAHO FALLS    CLOUDY    27  21  78 E5        30.41F
SALMON         CLOUDY    25  18  74 CALM      30.41F
BOISE          MOSUNNY   42  32  67 CALM      30.38F
SPOKANE        CLOUDY    38  36  92 NE8       30.30S FOG
$$

REGIONAL REPORTS...ALBERTA

CITY           SKY/WX    TMP DP  RH WIND       PRES   REMARKS
EDMONTON       CLOUDY    21  16  79 E7        30.21R WCI  13
CALGARY        PTSUNNY   45  32  61 N13       30.18S
LETHBRIDGE     PTSUNNY   43  36  75 W9        30.22S
MEDICINE HAT   CLOUDY    36  30  80 W7        30.22F WCI  30
WATERTON GATE    N/A     50  27  40 W9G20       N/A
CARDSTON         N/A     46  32  57 NE8         N/A
ONEFOUR          N/A     32  28  86 NW17        N/A  WCI  21
$$

REGIONAL REPORTS...SASKATCHEWAN

CITY           SKY/WX    TMP DP  RH WIND       PRES   REMARKS
SWIFT CURRENT  CLOUDY    19  16  86 S5        30.17R
REGINA         FLURRIES  18  12  79 NW13      30.23R WCI   4
SASKATOON      CLOUDY    10   3  72 NE7       30.32F WCI   0
CYPRESS HILLS    N/A     25  23  93 NW5         N/A
ROCKGLEN         N/A     21  18  86 N3          N/A
ASSINIBOIA       N/A     18  14  86 NE6         N/A  WCI   9
$$



USA.gov is the U.S. government's official web portal to all federal, state and local government web resources and services.